SMOG-1

Last updated on Sun Jul 28 2024 00:03:34 GMT+0000 (Coordinated Universal Time)

1 47964U 21022AJ 24209.42839774 .06058814 25082-5 18456-2 0 9998 2 47964 97.4302 124.3639 0010937 202.0180 158.0643 16.26713361184600

Satellite not in orbit

SMOG-1